DAL495 KSLC-KLAS

Flight info

Callsign DAL495
Flight time 0h 50m
Altitude 34000
Route FFU9 MLF STEWW CHOWW4
Aircraft B737/M-SDE2E3FGHIRWXY/LB1

Departure

Time 2026-05-05 18:02
Airport Salt Lake City International Airport (KSLC)

Arrival

Time 2026-05-05 18:52
Airport Harry Reid International Airport (KLAS)
Time Latitude Longitude Altitude Speed Heading
2026-05-05 17:50 40.78820 -111.97796 4223 ft 0 kts 267°
2026-05-05 17:53 40.78820 -111.97781 4223 ft 2 kts 265°
2026-05-05 17:53 40.78822 -111.97762 4223 ft 2 kts 266°
2026-05-05 17:53 40.78822 -111.97742 4223 ft 2 kts 266°
2026-05-05 17:54 40.78824 -111.97723 4223 ft 2 kts 265°
2026-05-05 17:54 40.78825 -111.97703 4223 ft 2 kts 266°
2026-05-05 17:54 40.78826 -111.97684 4223 ft 2 kts 265°
2026-05-05 17:54 40.78827 -111.97669 4223 ft 0 kts 266°
2026-05-05 17:55 40.78827 -111.97665 4223 ft 0 kts 266°
2026-05-05 17:57 40.78827 -111.97666 4223 ft 0 kts 266°
2026-05-05 17:57 40.78827 -111.97670 4223 ft 0 kts 266°
2026-05-05 17:57 40.78833 -111.97684 4223 ft 3 kts 320°
2026-05-05 17:57 40.78881 -111.97695 4223 ft 10 kts 355°
2026-05-05 17:58 40.78983 -111.97707 4223 ft 18 kts 354°
2026-05-05 17:58 40.79141 -111.97726 4222 ft 25 kts 356°
2026-05-05 17:58 40.79318 -111.97746 4222 ft 25 kts 354°
2026-05-05 17:58 40.79495 -111.97766 4223 ft 25 kts 356°
2026-05-05 17:59 40.79668 -111.97787 4223 ft 24 kts 355°
2026-05-05 17:59 40.79838 -111.97807 4224 ft 24 kts 355°
2026-05-05 17:59 40.80006 -111.97826 4227 ft 23 kts 355°
2026-05-05 17:59 40.80160 -111.97845 4230 ft 22 kts 355°
2026-05-05 18:00 40.80314 -111.97862 4229 ft 22 kts 355°
2026-05-05 18:00 40.80471 -111.97878 4227 ft 23 kts 354°
2026-05-05 18:00 40.80604 -111.97876 4227 ft 15 kts 33°
2026-05-05 18:00 40.80635 -111.97768 4227 ft 11 kts 86°
2026-05-05 18:01 40.80622 -111.97688 4228 ft 7 kts 144°
2026-05-05 18:01 40.80568 -111.97673 4229 ft 19 kts 175°
2026-05-05 18:01 40.80111 -111.97620 4230 ft 111 kts 175°
2026-05-05 18:01 40.79089 -111.97502 4397 ft 171 kts 174°
2026-05-05 18:02 40.77935 -111.97384 5443 ft 172 kts 178°
2026-05-05 18:02 40.76750 -111.97322 6317 ft 176 kts 181°
2026-05-05 18:02 40.75424 -111.97269 6770 ft 203 kts 180°
2026-05-05 18:02 40.73930 -111.97217 7223 ft 234 kts 180°
2026-05-05 18:03 40.72227 -111.97125 7836 ft 260 kts 180°
2026-05-05 18:03 40.70341 -111.97017 8583 ft 280 kts 180°
2026-05-05 18:03 40.68404 -111.96902 9656 ft 286 kts 179°
2026-05-05 18:03 40.66367 -111.96773 10462 ft 302 kts 178°
2026-05-05 18:04 40.64199 -111.96630 11083 ft 323 kts 178°
2026-05-05 18:04 40.61951 -111.96477 12010 ft 332 kts 177°
2026-05-05 18:04 40.59655 -111.96318 13004 ft 338 kts 177°
2026-05-05 18:04 40.57307 -111.96156 13983 ft 343 kts 177°
2026-05-05 18:05 40.54918 -111.95990 14942 ft 349 kts 177°
2026-05-05 18:05 40.52486 -111.95821 15877 ft 354 kts 177°
2026-05-05 18:05 40.50026 -111.95649 16785 ft 359 kts 177°
2026-05-05 18:05 40.47527 -111.95475 17666 ft 364 kts 177°
2026-05-05 18:06 40.45008 -111.95299 18527 ft 369 kts 177°
2026-05-05 18:06 40.43305 -111.95179 19086 ft 372 kts 177°
2026-05-05 18:06 40.39844 -111.94936 20183 ft 378 kts 177°
2026-05-05 18:06 40.37220 -111.94751 20967 ft 383 kts 177°
2026-05-05 18:07 40.34566 -111.94563 21737 ft 388 kts 177°
2026-05-05 18:07 40.31878 -111.94373 22480 ft 392 kts 177°
2026-05-05 18:07 40.29127 -111.94175 23208 ft 397 kts 177°
2026-05-05 18:07 40.26382 -111.94183 23891 ft 401 kts 184°
2026-05-05 18:08 40.23615 -111.94536 24565 ft 406 kts 187°
2026-05-05 18:08 40.20793 -111.94991 25226 ft 410 kts 187°
2026-05-05 18:08 40.17971 -111.95435 25867 ft 414 kts 187°
2026-05-05 18:08 40.15097 -111.95863 26490 ft 419 kts 186°
2026-05-05 18:09 40.12194 -111.96285 27106 ft 423 kts 186°
2026-05-05 18:09 40.09272 -111.96708 27688 ft 427 kts 186°
2026-05-05 18:09 40.06329 -111.97134 28266 ft 431 kts 186°
2026-05-05 18:09 40.03327 -111.97569 28835 ft 435 kts 186°
2026-05-05 18:10 40.00333 -111.98003 29380 ft 439 kts 186°
2026-05-05 18:10 39.97286 -111.98444 29925 ft 443 kts 186°
2026-05-05 18:10 39.94224 -111.98886 30451 ft 447 kts 186°
2026-05-05 18:10 39.91120 -111.99335 30972 ft 450 kts 186°
2026-05-05 18:11 39.88039 -111.99779 31561 ft 452 kts 186°
2026-05-05 18:11 39.84943 -112.00226 32178 ft 452 kts 186°
2026-05-05 18:11 39.81833 -112.00674 32806 ft 451 kts 186°
2026-05-05 18:11 39.78709 -112.01123 33428 ft 451 kts 185°
2026-05-05 18:12 39.75628 -112.01566 33876 ft 452 kts 185°
2026-05-05 18:12 39.69278 -112.02477 33952 ft 465 kts 185°
2026-05-05 18:13 39.62879 -112.03395 33937 ft 463 kts 185°
2026-05-05 18:13 39.56473 -112.04311 33935 ft 470 kts 185°
2026-05-05 18:14 39.49860 -112.05254 33931 ft 487 kts 185°
2026-05-05 18:14 39.43062 -112.06220 33928 ft 494 kts 185°
2026-05-05 18:15 39.36253 -112.07185 33928 ft 491 kts 185°
2026-05-05 18:15 39.29503 -112.08143 33934 ft 491 kts 185°
2026-05-05 18:16 39.22724 -112.09148 33942 ft 492 kts 188°
2026-05-05 18:16 39.16132 -112.11507 33950 ft 493 kts 201°
2026-05-05 18:17 39.10035 -112.15482 33951 ft 493 kts 213°
2026-05-05 18:17 39.04644 -112.20879 33949 ft 493 kts 222°
2026-05-05 18:18 38.99636 -112.26802 33948 ft 489 kts 224°
2026-05-05 18:18 38.94695 -112.32687 33947 ft 482 kts 224°
2026-05-05 18:19 38.89799 -112.38483 33946 ft 477 kts 223°
2026-05-05 18:19 38.84942 -112.44222 33945 ft 476 kts 223°
2026-05-05 18:20 38.80080 -112.49956 33945 ft 477 kts 223°
2026-05-05 18:20 38.75226 -112.55669 33945 ft 477 kts 223°
2026-05-05 18:21 38.70350 -112.61398 33945 ft 477 kts 223°
2026-05-05 18:21 38.65459 -112.67132 33946 ft 477 kts 223°
2026-05-05 18:22 38.60603 -112.72816 33946 ft 477 kts 223°
2026-05-05 18:22 38.55698 -112.78545 33946 ft 477 kts 223°
2026-05-05 18:23 38.50831 -112.84219 33946 ft 477 kts 223°
2026-05-05 18:23 38.45942 -112.89907 33946 ft 479 kts 222°
2026-05-05 18:24 38.41013 -112.95631 33946 ft 480 kts 222°
2026-05-05 18:24 38.35675 -113.00649 33948 ft 479 kts 210°
2026-05-05 18:25 38.29704 -113.04279 33947 ft 477 kts 201°
2026-05-05 18:25 38.23529 -113.07286 33946 ft 477 kts 200°
2026-05-05 18:26 38.17313 -113.10223 33948 ft 477 kts 200°
2026-05-05 18:26 38.11133 -113.13148 33953 ft 477 kts 200°
2026-05-05 18:27 38.04909 -113.16090 33960 ft 477 kts 200°
2026-05-05 18:27 37.98709 -113.19014 33967 ft 477 kts 200°
2026-05-05 18:28 37.89415 -113.23389 33973 ft 477 kts 200°
2026-05-05 18:28 37.83236 -113.26290 33973 ft 477 kts 200°
2026-05-05 18:29 37.77000 -113.29214 33973 ft 477 kts 200°
2026-05-05 18:29 37.70800 -113.32114 33973 ft 477 kts 200°
2026-05-05 18:30 37.64600 -113.35011 33973 ft 477 kts 200°
2026-05-05 18:30 37.58420 -113.37893 33973 ft 477 kts 200°
2026-05-05 18:31 37.52203 -113.40786 33966 ft 477 kts 200°
2026-05-05 18:31 37.45995 -113.43671 33956 ft 477 kts 200°
2026-05-05 18:32 37.39776 -113.46555 33945 ft 477 kts 200°
2026-05-05 18:32 37.33573 -113.49427 33940 ft 477 kts 200°
2026-05-05 18:33 37.27369 -113.52293 33937 ft 477 kts 200°
2026-05-05 18:33 37.21286 -113.55451 33938 ft 477 kts 205°
2026-05-05 18:34 37.15293 -113.58985 33937 ft 478 kts 205°
2026-05-05 18:34 37.09275 -113.62512 33938 ft 477 kts 204°
2026-05-05 18:35 37.03325 -113.65987 33935 ft 465 kts 204°
2026-05-05 18:35 36.97629 -113.69307 33934 ft 448 kts 205°
2026-05-05 18:36 36.91986 -113.72593 33937 ft 451 kts 206°
2026-05-05 18:36 36.86298 -113.75911 33939 ft 453 kts 206°
2026-05-05 18:37 36.80583 -113.79243 33939 ft 452 kts 206°
2026-05-05 18:37 36.74942 -113.82526 33938 ft 452 kts 206°
2026-05-05 18:38 36.69246 -113.85836 33938 ft 452 kts 206°
2026-05-05 18:38 36.66381 -113.87499 33638 ft 458 kts 206°
2026-05-05 18:38 36.63536 -113.89236 33089 ft 456 kts 210°
2026-05-05 18:39 36.60888 -113.91338 32501 ft 452 kts 217°
2026-05-05 18:39 36.58481 -113.93759 31810 ft 450 kts 223°
2026-05-05 18:39 36.56282 -113.96487 30815 ft 450 kts 227°
2026-05-05 18:39 36.54234 -113.99414 29670 ft 457 kts 230°
2026-05-05 18:40 36.52243 -114.02516 28412 ft 460 kts 231°
2026-05-05 18:40 36.50302 -114.05650 27168 ft 464 kts 231°
2026-05-05 18:40 36.48349 -114.08812 25933 ft 468 kts 231°
2026-05-05 18:40 36.46405 -114.11949 24819 ft 460 kts 231°
2026-05-05 18:41 36.44483 -114.15042 23687 ft 451 kts 231°
2026-05-05 18:41 36.42569 -114.18117 22483 ft 447 kts 231°
2026-05-05 18:41 36.40714 -114.21093 21270 ft 442 kts 231°
2026-05-05 18:41 36.38844 -114.24084 20032 ft 435 kts 230°
2026-05-05 18:42 36.37003 -114.26968 18810 ft 429 kts 230°
2026-05-05 18:42 36.35180 -114.29812 17586 ft 423 kts 230°
2026-05-05 18:42 36.33390 -114.32613 16365 ft 417 kts 230°
2026-05-05 18:42 36.31596 -114.35423 15122 ft 411 kts 231°
2026-05-05 18:43 36.29861 -114.38142 14045 ft 401 kts 231°
2026-05-05 18:43 36.28159 -114.40807 13640 ft 404 kts 231°
2026-05-05 18:43 36.26409 -114.43542 13158 ft 401 kts 231°
2026-05-05 18:43 36.24684 -114.46230 12682 ft 399 kts 230°
2026-05-05 18:44 36.22946 -114.48889 12205 ft 396 kts 230°
2026-05-05 18:44 36.21232 -114.51508 11733 ft 394 kts 230°
2026-05-05 18:44 36.19514 -114.54136 11255 ft 391 kts 230°
2026-05-05 18:44 36.17807 -114.56748 10778 ft 388 kts 230°
2026-05-05 18:45 36.16115 -114.59337 10301 ft 386 kts 230°
2026-05-05 18:45 36.14433 -114.61906 9824 ft 383 kts 230°
2026-05-05 18:45 36.12767 -114.64452 9356 ft 380 kts 230°
2026-05-05 18:45 36.11139 -114.66988 8905 ft 378 kts 233°
2026-05-05 18:46 36.09759 -114.69736 8454 ft 374 kts 241°
2026-05-05 18:46 36.08723 -114.72579 7987 ft 350 kts 248°
2026-05-05 18:46 36.08037 -114.75346 7569 ft 326 kts 255°
2026-05-05 18:46 36.07666 -114.78013 7166 ft 307 kts 262°
2026-05-05 18:47 36.07484 -114.80571 6807 ft 290 kts 265°
2026-05-05 18:47 36.07394 -114.82991 6455 ft 277 kts 267°
2026-05-05 18:47 36.07365 -114.85327 6104 ft 268 kts 268°
2026-05-05 18:47 36.07362 -114.87559 5767 ft 257 kts 268°
2026-05-05 18:48 36.07363 -114.89710 5415 ft 244 kts 268°
2026-05-05 18:48 36.07368 -114.91765 5055 ft 234 kts 268°
2026-05-05 18:48 36.07370 -114.93745 4736 ft 224 kts 268°
2026-05-05 18:48 36.07374 -114.95634 4477 ft 214 kts 267°
2026-05-05 18:49 36.07374 -114.97426 4223 ft 205 kts 267°
2026-05-05 18:49 36.07373 -114.99138 3972 ft 197 kts 267°
2026-05-05 18:49 36.07372 -115.00784 3808 ft 181 kts 268°
2026-05-05 18:49 36.07376 -115.02264 3683 ft 167 kts 268°
2026-05-05 18:50 36.07375 -115.03638 3495 ft 154 kts 267°
2026-05-05 18:50 36.07375 -115.04957 3301 ft 155 kts 267°
2026-05-05 18:50 36.07370 -115.06287 3084 ft 152 kts 268°
2026-05-05 18:50 36.07369 -115.07587 2887 ft 150 kts 268°
2026-05-05 18:51 36.07369 -115.08901 2687 ft 156 kts 268°
2026-05-05 18:51 36.07358 -115.10301 2506 ft 167 kts 269°
2026-05-05 18:51 36.07367 -115.11719 2237 ft 163 kts 269°
2026-05-05 18:51 36.07365 -115.13075 2063 ft 149 kts 270°
2026-05-05 18:52 36.07364 -115.14075 2087 ft 73 kts 270°
2026-05-05 18:52 36.07363 -115.14445 2099 ft 27 kts 270°
2026-05-05 18:52 36.07367 -115.14687 2107 ft 28 kts 272°
2026-05-05 18:52 36.07418 -115.14927 2116 ft 25 kts 296°
2026-05-05 18:53 36.07477 -115.15061 2120 ft 15 kts 301°
2026-05-05 18:53 36.07521 -115.15125 2122 ft 4 kts 330°
2026-05-05 18:53 36.07529 -115.15130 2122 ft 0 kts 330°
2026-05-05 18:54 36.07531 -115.15131 2122 ft 0 kts 330°
2026-05-05 18:54 36.07532 -115.15132 2122 ft 0 kts 330°
2026-05-05 18:55 36.07558 -115.15149 2122 ft 9 kts 333°
2026-05-05 18:55 36.07655 -115.15205 2122 ft 21 kts 335°
2026-05-05 18:55 36.07775 -115.15260 2122 ft 13 kts 13°
2026-05-05 18:55 36.07816 -115.15153 2117 ft 16 kts 55°